DMSP 5D-2 F13 DEB, 40402

Orbit data source: Space-Track

DMSP 5D-2 F13 DEB, 40402 is space debris in SSO originally from a launch on Fri, 24 Mar 1995 UTC launched from the Air Force Western Test Range (AFWTR). Debris objects in space refer to the collection of defunct objects orbiting the Earth. Examples of debris include non-operational satellites, rocket bodies, and fragments generated from explosions, collisions, or faulty payload assembly.

Loading next visibility...
Identifier
40402, 1995-015P
Orbit
SSO
Country
Flag of USUS
Related business
Manufacturer
Unknown
Mission
Spacecraft
Bus & Motor
Unknown
Mass
Unknown
Launch date (UTC)
1995-03-24 (31 years ago)
Launch vehicle
Unknown
Launch site
Air Force Western Test Range (AFWTR)
Object type
Payload
Rocket body
Debris
Shape & HBR
Unknown shape, 0.1 m
Radar Cross Section
Medium (>0.1 m² and <1 m²)

Expand to show TLE details & history
Last TLE update: 2 days ago

TLE from 2 days ago
0 DMSP 5D-2 F13 DEB
1 40402U 95015P   26171.30305307  .00001274  00000-0  46104-3 0  9990
2 40402  98.6529 195.3355 0143761  31.8555 329.1222 14.29620185587448
Epoch: 2026-06-20T07:16Z
TLE epoch observation values (Epoch: 2026-06-20T07:16:23.785Z)
Latitude
-0.00004°
Longitude
177.71679°
Altitude
707.829 km
Speed
7.548 km/s
True Right ascension
13h 01m 20s
True Declination
0° 00' 00"
Sunlit
Object was in daylight at epoch
Visualization orbit readout
Latitude
Unknown
Longitude
Unknown
Altitude
Unknown
Speed
Unknown
Apparent Right ascension
Unknown
Apparent Declination
Unknown
Sunlit
N/A
Visualization observer readout
Local Sidereal Time
16:29:22
Azimuth
Unknown
Elevation
Unknown
Doppler factor
Unknown
Orbital elements
Apogee altitude
893.195 km
Perigee altitude
687.091 km
Semi-major axis
7,168.28 km
Eccentricity
0.01438
Inclination
98.6529°
RAAN
195.3355°
Arg. of periapsis
31.8555°
True anomaly
328.26355°
Mean anomaly
329.1222°
Eccentric anomaly
328.69421°
Mean motion
3.57619 °/min
Orbital period
100.67 mins
BSTAR
0.00046104
Loading maneuver chart data...
Computing Atmospheric mass density...

Documentation

Showing up to 5 results
|